DLH077 EDDL-EDDF

Flight info

Callsign DLH077
Flight time N/A
Altitude 21000
Route COL5Z/05R COL T911 ROLIS ROLIS5D
Aircraft A320/M-SDE2E3FGIJ1LORWXYZ/HB1

Departure

Time 2026-05-07 19:11
Airport Düsseldorf Airport (EDDL)

Arrival

Time N/A
Airport Frankfurt Main Airport (EDDF)
Time Latitude Longitude Altitude Speed Heading
2026-05-07 18:55 51.28106 6.76722 132 ft 0 kts 274°
2026-05-07 19:03 51.28105 6.76733 133 ft 2 kts 274°
2026-05-07 19:03 51.28104 6.76757 133 ft 2 kts 274°
2026-05-07 19:03 51.28101 6.76781 134 ft 2 kts 308°
2026-05-07 19:04 51.28089 6.76796 134 ft 2 kts 342°
2026-05-07 19:04 51.28075 6.76798 134 ft 0 kts 13°
2026-05-07 19:04 51.28069 6.76794 134 ft 1 kts 20°
2026-05-07 19:04 51.28067 6.76793 134 ft 0 kts 18°
2026-05-07 19:07 51.28072 6.76796 134 ft 1 kts 19°
2026-05-07 19:07 51.28093 6.76807 134 ft 4 kts 19°
2026-05-07 19:08 51.28133 6.76827 134 ft 7 kts 15°
2026-05-07 19:08 51.28200 6.76843 132 ft 12 kts
2026-05-07 19:08 51.28296 6.76818 128 ft 16 kts 324°
2026-05-07 19:08 51.28392 6.76709 125 ft 15 kts 325°
2026-05-07 19:09 51.28408 6.76608 125 ft 11 kts 233°
2026-05-07 19:09 51.28357 6.76497 123 ft 13 kts 233°
2026-05-07 19:09 51.28299 6.76373 122 ft 14 kts 233°
2026-05-07 19:09 51.28238 6.76245 122 ft 14 kts 233°
2026-05-07 19:10 51.28191 6.76119 120 ft 11 kts 270°
2026-05-07 19:10 51.28254 6.76030 119 ft 13 kts 329°
2026-05-07 19:10 51.28315 6.75969 120 ft 5 kts 352°
2026-05-07 19:10 51.28341 6.76002 120 ft 5 kts 54°
2026-05-07 19:11 51.28466 6.76264 121 ft 65 kts 52°
2026-05-07 19:11 51.28878 6.77124 124 ft 128 kts 52°
2026-05-07 19:11 51.29513 6.78457 284 ft 164 kts 54°
2026-05-07 19:11 51.30177 6.79882 972 ft 162 kts 53°
2026-05-07 19:12 51.30857 6.81303 1724 ft 161 kts 53°
2026-05-07 19:12 51.31526 6.82711 2258 ft 166 kts 53°
2026-05-07 19:12 51.32247 6.84248 2613 ft 182 kts 53°
2026-05-07 19:12 51.33042 6.85932 2977 ft 199 kts 52°
2026-05-07 19:13 51.33905 6.87817 3259 ft 222 kts 54°
2026-05-07 19:13 51.34819 6.89946 3680 ft 241 kts 60°
2026-05-07 19:13 51.35289 6.92607 4146 ft 260 kts 88°
2026-05-07 19:13 51.35072 6.95495 4949 ft 265 kts 98°
2026-05-07 19:14 51.34750 6.98368 5788 ft 267 kts 101°
2026-05-07 19:14 51.34005 7.01075 6529 ft 275 kts 130°
2026-05-07 19:14 51.32536 7.03043 7344 ft 279 kts 145°
2026-05-07 19:14 51.30913 7.04723 8125 ft 283 kts 147°
2026-05-07 19:15 51.29243 7.06465 8921 ft 287 kts 146°
2026-05-07 19:15 51.27614 7.08253 9703 ft 290 kts 144°
2026-05-07 19:15 51.25954 7.10149 10488 ft 295 kts 144°
2026-05-07 19:15 51.24265 7.12122 11016 ft 308 kts 144°
2026-05-07 19:16 51.22550 7.14151 11684 ft 314 kts 143°
2026-05-07 19:16 51.20782 7.16254 12414 ft 317 kts 144°
2026-05-07 19:16 51.19035 7.18335 12885 ft 320 kts 144°
2026-05-07 19:16 51.17227 7.20487 13549 ft 324 kts 144°
2026-05-07 19:17 51.15420 7.22636 14316 ft 325 kts 144°
2026-05-07 19:17 51.13612 7.24784 14993 ft 328 kts 144°
2026-05-07 19:17 51.11771 7.26908 15657 ft 331 kts 147°
2026-05-07 19:17 51.09823 7.28865 16294 ft 333 kts 149°
2026-05-07 19:18 51.07847 7.30791 16938 ft 335 kts 149°
2026-05-07 19:18 51.05861 7.32723 17618 ft 336 kts 149°
2026-05-07 19:18 51.03876 7.34654 18235 ft 339 kts 150°
2026-05-07 19:18 51.01847 7.36628 18774 ft 341 kts 150°
2026-05-07 19:19 50.99826 7.38593 19040 ft 342 kts 150°
2026-05-07 19:19 50.97806 7.40558 19049 ft 342 kts 150°
2026-05-07 19:19 50.95792 7.42515 19053 ft 342 kts 150°
2026-05-07 19:19 50.93757 7.44491 19059 ft 342 kts 150°
2026-05-07 19:20 50.91736 7.46452 19055 ft 342 kts 150°
2026-05-07 19:20 50.89690 7.48435 19055 ft 342 kts 150°
2026-05-07 19:20 50.87664 7.50398 19055 ft 341 kts 150°
2026-05-07 19:20 50.85656 7.52340 19053 ft 341 kts 150°
2026-05-07 19:21 50.83625 7.54302 18828 ft 340 kts 150°
2026-05-07 19:21 50.81614 7.56244 18570 ft 338 kts 150°
2026-05-07 19:21 50.79590 7.58172 18311 ft 337 kts 152°
2026-05-07 19:21 50.77533 7.59882 18057 ft 335 kts 156°
2026-05-07 19:22 50.75416 7.61358 17803 ft 333 kts 158°
2026-05-07 19:22 50.73286 7.62776 17546 ft 332 kts 158°
2026-05-07 19:22 50.71153 7.64192 17293 ft 331 kts 158°
2026-05-07 19:22 50.69032 7.65600 17039 ft 330 kts 159°
2026-05-07 19:23 50.66941 7.66990 16787 ft 328 kts 159°
2026-05-07 19:23 50.64837 7.68387 16537 ft 327 kts 159°
2026-05-07 19:23 50.62758 7.69768 16281 ft 326 kts 159°
2026-05-07 19:23 50.60666 7.71155 16026 ft 324 kts 159°
2026-05-07 19:24 50.58611 7.72518 15776 ft 323 kts 159°
2026-05-07 19:24 50.56525 7.73899 15526 ft 322 kts 159°
2026-05-07 19:24 50.54473 7.75257 15289 ft 321 kts 159°
2026-05-07 19:24 50.52437 7.76603 15064 ft 320 kts 159°
2026-05-07 19:25 50.50400 7.77948 14810 ft 316 kts 159°
2026-05-07 19:25 50.48378 7.79282 14399 ft 315 kts 159°
2026-05-07 19:25 50.46359 7.80612 13982 ft 314 kts 159°
2026-05-07 19:25 50.44369 7.82013 13579 ft 313 kts 153°
2026-05-07 19:26 50.42523 7.83745 13235 ft 311 kts 146°
2026-05-07 19:26 50.40783 7.85805 13029 ft 312 kts 143°
2026-05-07 19:26 50.39091 7.87915 12757 ft 311 kts 142°